Bullhead City, AZ

11:41 PM MST on November 24, 2017 (GMT -0700)
Laughlin-Bullhead International

Weather History for KIFP - June, 2013

Change the Weather History Date:

Monday, June 17, 2013

  Actual Average Record
Temperature  
Mean Temperature 89 °F -  
Max Temperature 105 °F 102 °F 113 °F (2008)
Min Temperature 73 °F 79 °F 63 °F (1992)
Cooling Degree Days 24    
Growing Degree Days 39 (Base 50)    
Moisture  
Dew Point 15 °F    
Average Humidity 7    
Maximum Humidity 12    
Minimum Humidity 4    
Precipitation  
Precipitation 0.00 in - - ()
Sea Level Pressure  
Sea Level Pressure 29.79 in    
Wind  
Wind Speed 4 mph (SE)    
Max Wind Speed 16 mph    
Max Gust Speed 22 mph    
Visibility 10 miles    
Events      
Averages and records for this station are not official NWS values.
T = Trace of Precipitation, MM = Missing Value Source: NWS Daily Summary

Daily Weather History Graph

Daily Weather History Graph

Search for Another Location

Airport or City:

Trip Planner

Search our weather history database for the weather conditions in past years. The results will help you decide how hot, cold, wet, or windy it might be!

Date:

Astronomy

Jun. 17, 2013 Rise Set
Actual Time 5:23 AM MST 7:55 PM MST
Civil Twilight 4:53 AM MST 8:24 PM MST
Nautical Twilight 4:16 AM MST 9:01 PM MST
Astronomical Twilight 3:36 AM MST 9:42 PM MST
Moon 1:48 PM MST (6/17) 12:49 AM MST (6/17)
Length of Visible Light 15h 31m
Length of Day
14h 31m
First Quarter, 61% of the Moon is Illuminated
Jun 17
First Quarter
Jun 23
Full
Jun 29
Last Quarter
Jul 8
New
Jul 15
First Quarter

Hourly Weather History & Observations

Time (MST) Temp. Dew Point Humidity Pressure Visibility Wind Dir Wind Speed Gust Speed Precip Events Conditions
12:15 AM 86.0 °F 10.4 °F 6% 29.79 in 10.0 mi Calm Calm - N/A   Clear
12:35 AM 84.2 °F 10.4 °F 6% 29.79 in 10.0 mi Calm Calm - N/A   Clear
12:55 AM 82.4 °F 10.4 °F 7% 29.79 in 10.0 mi Calm Calm - N/A   Clear
1:15 AM 84.2 °F 10.4 °F 6% 29.79 in 10.0 mi NE 4.6 mph - N/A   Clear
1:35 AM 84.2 °F 12.2 °F 7% 29.79 in 10.0 mi ENE 6.9 mph - N/A   Clear
1:55 AM 84.2 °F 14.0 °F 7% 29.79 in 10.0 mi ENE 6.9 mph - N/A   Clear
2:15 AM 84.2 °F 15.8 °F 8% 29.79 in 10.0 mi Calm Calm - N/A   Clear
2:35 AM 80.6 °F 19.4 °F 10% 29.80 in 10.0 mi SSE 3.5 mph - N/A   Clear
2:55 AM 78.8 °F 17.6 °F 10% 29.80 in 10.0 mi Calm Calm - N/A   Clear
3:15 AM 77.0 °F 17.6 °F 11% 29.80 in 10.0 mi Calm Calm - N/A   Clear
3:35 AM 75.2 °F 15.8 °F 11% 29.80 in 10.0 mi South 5.8 mph - N/A   Clear
3:55 AM 75.2 °F 14.0 °F 10% 29.81 in 10.0 mi SSE 4.6 mph - N/A   Clear
4:15 AM 75.2 °F 14.0 °F 10% 29.81 in 10.0 mi Calm Calm - N/A   Clear
4:35 AM 77.0 °F 14.0 °F 9% 29.81 in 10.0 mi NE 3.5 mph - N/A   Clear
4:55 AM 75.2 °F 10.4 °F 8% 29.82 in 10.0 mi Calm Calm - N/A   Clear
5:15 AM 73.4 °F 14.0 °F 10% 29.82 in 10.0 mi Calm Calm - N/A   Clear
5:35 AM 73.4 °F 17.6 °F 12% 29.83 in 10.0 mi Calm Calm - N/A   Clear
5:55 AM 75.2 °F 14.0 °F 10% 29.83 in 10.0 mi East 3.5 mph - N/A   Clear
6:15 AM 75.2 °F 15.8 °F 11% 29.84 in 10.0 mi Calm Calm - N/A   Clear
6:35 AM 75.2 °F 17.6 °F 11% 29.85 in 10.0 mi Calm Calm - N/A   Clear
6:55 AM 77.0 °F 17.6 °F 11% 29.85 in 10.0 mi Calm Calm - N/A   Clear
7:15 AM 80.6 °F 15.8 °F 9% 29.86 in 10.0 mi Calm Calm - N/A   Clear
7:35 AM 78.8 °F 17.6 °F 10% 29.86 in 10.0 mi Calm Calm - N/A   Clear
7:55 AM 80.6 °F 19.4 °F 10% 29.87 in 10.0 mi Calm Calm - N/A   Clear
8:15 AM 82.4 °F 19.4 °F 10% 29.87 in 10.0 mi Calm Calm - N/A   Clear
8:35 AM 82.4 °F 19.4 °F 10% 29.87 in 10.0 mi Calm Calm - N/A   Clear
8:55 AM 84.2 °F 23.0 °F 11% 29.88 in 10.0 mi Calm Calm - N/A   Clear
9:15 AM 86.0 °F 23.0 °F 10% 29.88 in 10.0 mi Calm Calm - N/A   Clear
9:35 AM 89.6 °F 23.0 °F 9% 29.87 in 10.0 mi South 6.9 mph - N/A   Clear
9:55 AM 89.6 °F 21.2 °F 8% 29.87 in 10.0 mi SSE 5.8 mph - N/A   Clear
10:15 AM 91.4 °F 19.4 °F 7% 29.87 in 10.0 mi SSE 4.6 mph - N/A   Clear
10:35 AM 93.2 °F 19.4 °F 7% 29.86 in 10.0 mi South 6.9 mph - N/A   Clear
10:55 AM 95.0 °F 17.6 °F 6% 29.86 in 10.0 mi SSE 10.4 mph - N/A   Clear
11:15 AM 96.8 °F 17.6 °F 6% 29.86 in 10.0 mi SSE 10.4 mph - N/A   Clear
11:35 AM 98.6 °F 17.6 °F 5% 29.85 in 10.0 mi SE 8.1 mph - N/A   Clear
11:55 AM 98.6 °F 15.8 °F 5% 29.85 in 10.0 mi SSE 10.4 mph - N/A   Clear
12:15 PM 100.4 °F 17.6 °F 5% 29.84 in 10.0 mi SSE 10.4 mph - N/A   Clear
12:35 PM 100.4 °F 17.6 °F 5% 29.83 in 10.0 mi SSE 12.7 mph - N/A   Clear
12:55 PM 102.2 °F 17.6 °F 5% 29.82 in 10.0 mi SSE 10.4 mph - N/A   Clear
1:15 PM 102.2 °F 17.6 °F 5% 29.81 in 10.0 mi South 9.2 mph 16.1 mph N/A   Clear
1:35 PM 102.2 °F 15.8 °F 4% 29.80 in 10.0 mi SSE 9.2 mph - N/A   Clear
1:55 PM 102.2 °F 15.8 °F 4% 29.79 in 10.0 mi SSE 10.4 mph 16.1 mph N/A   Clear
2:15 PM 104.0 °F 15.8 °F 4% 29.79 in 10.0 mi South 6.9 mph - N/A   Clear
2:35 PM 104.0 °F 15.8 °F 4% 29.78 in 10.0 mi SSW 9.2 mph 16.1 mph N/A   Clear
2:55 PM 104.0 °F 15.8 °F 4% 29.77 in 10.0 mi ENE 4.6 mph - N/A   Clear
3:15 PM 104.0 °F 14.0 °F 4% 29.76 in 10.0 mi East 6.9 mph - N/A   Clear
3:35 PM 105.8 °F 15.8 °F 4% 29.75 in 10.0 mi SE 9.2 mph - N/A   Clear
3:55 PM 105.8 °F 15.8 °F 4% 29.74 in 10.0 mi SSE 11.5 mph - N/A   Clear
4:15 PM 104.0 °F 15.8 °F 4% 29.74 in 10.0 mi ESE 9.2 mph 20.7 mph N/A   Clear
4:35 PM 105.8 °F 15.8 °F 4% 29.73 in 10.0 mi SSE 11.5 mph 16.1 mph N/A   Clear
4:55 PM 104.0 °F 15.8 °F 4% 29.72 in 10.0 mi SE 9.2 mph 19.6 mph N/A   Clear
5:15 PM 104.0 °F 15.8 °F 4% 29.72 in 10.0 mi ESE 12.7 mph - N/A   Clear
5:35 PM 104.0 °F 15.8 °F 4% 29.71 in 10.0 mi SSE 8.1 mph - N/A   Clear
5:55 PM 104.0 °F 14.0 °F 4% 29.71 in 10.0 mi SSE 12.7 mph 20.7 mph N/A   Clear
6:15 PM 104.0 °F 10.4 °F 4% 29.71 in 10.0 mi ESE 12.7 mph 21.9 mph N/A   Clear
6:35 PM 104.0 °F 8.6 °F 4% 29.71 in 10.0 mi SE 13.8 mph - N/A   Clear
6:55 PM 104.0 °F 8.6 °F 4% 29.71 in 10.0 mi ESE 11.5 mph - N/A   Clear
7:15 PM 102.2 °F 10.4 °F 4% 29.70 in 10.0 mi East 16.1 mph 19.6 mph N/A   Clear
7:35 PM 102.2 °F 8.6 °F 4% 29.71 in 10.0 mi ESE 13.8 mph - N/A   Clear
7:55 PM 100.4 °F 10.4 °F 4% 29.71 in 10.0 mi ESE 11.5 mph 16.1 mph N/A   Clear
8:15 PM 100.4 °F 12.2 °F 4% 29.71 in 10.0 mi ESE 11.5 mph - N/A   Clear
8:35 PM 98.6 °F 14.0 °F 5% 29.71 in 10.0 mi East 8.1 mph - N/A   Clear
8:55 PM 96.8 °F 14.0 °F 5% 29.72 in 10.0 mi ENE 9.2 mph - N/A   Clear
9:15 PM 95.0 °F 12.2 °F 5% 29.73 in 10.0 mi Calm Calm - N/A   Clear
9:35 PM 95.0 °F 12.2 °F 5% 29.73 in 10.0 mi East 3.5 mph - N/A   Clear
9:55 PM 95.0 °F 12.2 °F 5% 29.73 in 10.0 mi East 3.5 mph - N/A   Clear
10:15 PM 93.2 °F 14.0 °F 5% 29.73 in 10.0 mi East 4.6 mph - N/A   Clear
10:35 PM 93.2 °F 14.0 °F 5% 29.73 in 10.0 mi WNW 3.5 mph - N/A   Clear
10:55 PM 89.6 °F 15.8 °F 7% 29.73 in 10.0 mi SW 3.5 mph - N/A   Clear
11:15 PM 87.8 °F 17.6 °F 8% 29.73 in 10.0 mi SW 3.5 mph - N/A   Clear
11:35 PM 87.8 °F 14.0 °F 6% 29.72 in 10.0 mi Calm Calm - N/A   Clear
11:55 PM 86.0 °F 15.8 °F 7% 29.72 in 10.0 mi Calm Calm - N/A   Clear